This demonstration page uses our WeatherBlox Daily Observations layout. Learn more.

Hourly Observations for March 27, 2020

Temp ( °F °C ) Dew Point ( °F °C ) Humidity (%) Winds ( mph kmh ) Pressure ( in mb ) Visibility ( mi km ) Precip ( " mm )
12:15 am 00:15 Cloudy 52 11 45 7 77 77 S 6 9 29.83 1010 10 16.0934 0 0
12:35 am 00:35 Cloudy 52 11 45 7 77 77 S 3 6 29.83 1010 10 16.0934 0 0
12:55 am 00:55 Cloudy 52 11 45 7 77 77 SSE 3 6 29.82 1010 10 16.0934 0 0
1:15 am 01:15 Cloudy 52 11 46 8 82 82 S 5 7 29.82 1010 10 16.0934 0 0
1:35 am 01:35 Cloudy 52 11 46 8 82 82 Calm 29.82 1010 10 16.0934 0 0
1:55 am 01:55 Cloudy 52 11 46 8 82 82 Calm 29.83 1010 10 16.0934 0 0
2:15 am 02:15 Cloudy 52 11 46 8 82 82 SSE 3 6 29.81 1010 10 16.0934 0 0
2:35 am 02:35 Cloudy 52 11 46 8 82 82 S 5 7 29.81 1010 10 16.0934 0 0
2:55 am 02:55 Cloudy 50 10 46 8 88 88 S 5 7 29.81 1009 10 16.0934 0 0
3:15 am 03:15 Cloudy 50 10 46 8 88 88 Calm 29.82 1010 10 16.0934 0 0
3:35 am 03:35 Mostly Cloudy 50 10 46 8 88 88 Calm 29.81 1009 10 16.0934 0 0
3:55 am 03:55 Mostly Cloudy 48 9 46 8 94 94 Calm 29.8 1009 10 16.0934 0 0
4:15 am 04:15 Cloudy 48 9 46 8 94 94 SSW 3 6 29.8 1009 10 16.0934 0 0
4:35 am 04:35 Cloudy 48 9 46 8 94 94 NW 6 9 29.83 1010 10 16.0934 0 0
4:55 am 04:55 Cloudy 48 9 46 8 94 94 Calm 29.81 1009 10 16.0934 0 0
5:15 am 05:15 Cloudy 50 10 46 8 88 88 Calm 29.81 1009 10 16.0934 0 0
5:35 am 05:35 Cloudy 48 9 46 8 94 94 Calm 29.82 1010 10 16.0934 0 0
5:55 am 05:55 Partly Cloudy 46 8 46 8 100 100 Calm 29.81 1009 10 16.0934 0 0
6:15 am 06:15 Clear 46 8 45 7 93 93 Calm 29.81 1009 10 16.0934 0 0
6:35 am 06:35 Clear 45 7 45 7 100 100 Calm 29.82 1010 10 16.0934 0 0
6:55 am 06:55 Clear 43 6 43 6 100 100 WNW 3 6 29.83 1010 10 16.0934 0 0
7:15 am 07:15 Sunny 43 6 43 6 100 100 WNW 5 7 29.86 1011 10 16.0934 0 0
7:35 am 07:35 Sunny 45 7 45 7 100 100 NNW 7 11 29.87 1012 10 16.0934 0 0
7:55 am 07:55 Sunny 46 8 45 7 93 93 N 6 9 29.88 1012 10 16.0934 0 0
8:15 am 08:15 Sunny 48 9 46 8 94 94 Calm 29.89 1012 10 16.0934 0 0
8:35 am 08:35 Sunny 50 10 46 8 88 88 Calm 29.89 1012 10 16.0934 0 0
8:55 am 08:55 Sunny 52 11 46 8 82 82 NNW 3 6 29.88 1012 10 16.0934 0 0
9:15 am 09:15 Sunny 54 12 46 8 77 77 NNW 3 6 29.88 1012 10 16.0934 0 0
9:35 am 09:35 Sunny 54 12 48 9 82 82 Calm 29.88 1012 10 16.0934 0 0
9:55 am 09:55 Sunny 55 13 48 9 77 77 Calm 29.88 1012 10 16.0934 0 0
10:15 am 10:15 Sunny 55 13 48 9 77 77 Calm 29.88 1012 10 16.0934 0 0
10:35 am 10:35 Sunny 55 13 50 10 82 82 Calm 29.89 1012 10 16.0934 0 0
10:55 am 10:55 Sunny 57 14 50 10 77 77 N 3 6 29.89 1012 10 16.0934 0 0
11:15 am 11:15 Sunny 59 15 48 9 68 68 NNE 5 7 29.91 1013 10 16.0934 0 0
11:35 am 11:35 Sunny 59 15 48 9 68 68 N 3 6 29.91 1013 10 16.0934 0 0
11:55 am 11:55 Sunny 61 16 50 10 68 68 Calm 29.92 1013 10 16.0934 0 0
12:15 pm 12:15 Sunny 61 16 48 9 63 63 NNE 3 6 29.93 1013 10 16.0934 0 0
12:35 pm 12:35 Sunny 61 16 48 9 63 63 NNW 3 6 29.94 1014 10 16.0934 0 0
12:55 pm 12:55 Sunny 61 16 48 9 63 63 N 5 7 29.93 1013 10 16.0934 0 0
1:15 pm 13:15 Sunny 63 17 48 9 59 59 NNE 5 7 29.93 1013 10 16.0934 0 0
1:35 pm 13:35 Sunny 61 16 48 9 63 63 N 7 11 29.93 1013 10 16.0934 0 0
1:55 pm 13:55 Sunny 63 17 48 9 59 59 Calm 29.92 1013 10 16.0934 0 0
2:15 pm 14:15 Sunny 63 17 48 9 59 59 NE 3 6 29.92 1013 10 16.0934 0 0
2:35 pm 14:35 Sunny 63 17 48 9 59 59 N 7 11 29.92 1013 10 16.0934 0 0
2:55 pm 14:55 Sunny 61 16 48 9 63 63 N 8 13 29.91 1013 10 16.0934 0 0
3:15 pm 15:15 Partly Cloudy 61 16 50 10 68 68 NNE 8 13 29.92 1013 10 16.0934 0 0
3:35 pm 15:35 Partly Cloudy 61 16 50 10 68 68 NNE 6 9 29.91 1013 10 16.0934 0 0
3:55 pm 15:55 Sunny 61 16 50 10 68 68 NNE 5 7 29.92 1013 10 16.0934 0 0
4:15 pm 16:15 Sunny 61 16 50 10 68 68 NNE 3 6 29.92 1013 10 16.0934 0 0
4:35 pm 16:35 Partly Cloudy 61 16 50 10 68 68 ENE 3 6 29.93 1013 10 16.0934 0 0
4:55 pm 16:55 Partly Cloudy 63 17 50 10 64 64 NNE 3 6 29.93 1013 10 16.0934 0 0
5:15 pm 17:15 Sunny 63 17 50 10 64 64 Calm 29.93 1013 10 16.0934 0 0
5:35 pm 17:35 Sunny 63 17 50 10 64 64 Calm 29.93 1013 10 16.0934 0 0
5:55 pm 17:55 Sunny 63 17 50 10 64 64 NNE 3 6 29.94 1014 10 16.0934 0 0
6:15 pm 18:15 Sunny 63 17 50 10 64 64 ESE 3 6 29.94 1014 10 16.0934 0 0
6:35 pm 18:35 Sunny 63 17 50 10 64 64 Calm 29.95 1014 10 16.0934 0 0
6:55 pm 18:55 Partly Cloudy 63 17 50 10 64 64 SSE 3 6 29.96 1014 10 16.0934 0 0
7:15 pm 19:15 Partly Cloudy 61 16 50 10 68 68 Calm 29.98 1015 10 16.0934 0 0
7:35 pm 19:35 Mostly Cloudy 61 16 50 10 68 68 Calm 29.98 1015 10 16.0934 0 0
7:55 pm 19:55 Cloudy 59 15 52 11 77 77 Calm 30 1016 10 16.0934 0 0
8:15 pm 20:15 Cloudy 61 16 52 11 72 72 Calm 30.01 1016 10 16.0934 0 0
8:35 pm 20:35 Cloudy 61 16 54 12 77 77 Calm 30.01 1016 10 16.0934 0 0
8:55 pm 20:55 Cloudy 59 15 52 11 77 77 SSW 3 6 30.01 1016 10 16.0934 0 0
9:15 pm 21:15 Cloudy 61 16 50 10 68 68 Calm 30.01 1016 10 16.0934 0 0
9:35 pm 21:35 Mostly Cloudy 59 15 52 11 77 77 SW 5 7 30 1016 10 16.0934 0 0
9:55 pm 21:55 Mostly Cloudy 55 13 52 11 88 88 Calm 30.02 1017 10 16.0934 0 0
10:15 pm 22:15 Partly Cloudy 57 14 52 11 82 82 Calm 30.02 1017 10 16.0934 0 0
10:35 pm 22:35 Mostly Cloudy 55 13 52 11 88 88 Calm 30.03 1017 10 16.0934 0 0
10:55 pm 22:55 Mostly Cloudy 57 14 52 11 82 82 Calm 30.02 1017 10 16.0934 0 0
11:15 pm 23:15 Mostly Cloudy 55 13 52 11 88 88 Calm 30.04 1017 10 16.0934 0 0
11:35 pm 23:35 Cloudy 57 14 50 10 77 77 SE 3 6 30.04 1017 10 16.0934 0 0
11:55 pm 23:55 Cloudy 59 15 50 10 72 72 Calm 30.05 1018 10 16.0934 0 0

Powered by AerisWeather